Regional Weather Roundup
Issued by NWS Grand Forks, ND

Home | Current Version | Previous Version | Text Only | Print | Product List | Glossary On
Versions: 1 2 3 4 5 6 7 8 9 10 11 12 13 14 15 16 17 18 19 20 21 22 23 24 25 26 27 28 29 30 31 32 33 34 35 36 37 38 39 40 41 42 43 44 45 46 47 48 49 50
000
ASUS43 KFGF 270731
RWRFGF
PRAIRIE TO PINES  WEATHER ROUNDUP
NATIONAL WEATHER SERVICE EASTERN NORTH DAKOTA/GRAND FORKS ND
200 AM CDT MON MAR 27 2017

 **SATELLITE DATA USED TO AUGMENT SKY COVER AT AUTOMATED STATIONS**
 *****  WEATHER ACROSS EASTERN NORTH DAKOTA  *****

CITY           SKY/WX    TMP DP  RH WIND       PRES   REMARKS
GRAND FORKS    CLOUDY    39  39 100 SE5       29.96S
GRAND FRKS AFB CLOUDY    34  34 100 CALM      29.97R FOG
DEVILS LAKE    FOG       34  32  93 SE5       29.93F VSB 1/4
FARGO          FAIR      35  33  92 CALM      29.95S
WAHPETON ARPT    N/A     34  32  93 SW3       29.97R
$$

 ***** WEATHER ACROSS CENTRAL AND WESTERN NORTH DAKOTA  *****

CITY           SKY/WX    TMP DP  RH WIND       PRES   REMARKS
BISMARCK       FAIR      34  31  88 NE8       29.93S
MINOT          FAIR      36  34  92 N7        29.88R
JAMESTOWN      FAIR      34  34 100 CALM      29.93S FOG
MINOT AFB      FAIR      32  30  93 CALM      29.87F FOG
GARRISON         N/A     43  33  68 CALM      29.88S
WILLISTON      MOCLDY    35  29  78 CALM      29.88F
DICKINSON      FAIR      33  29  85 S7        29.86S
HETTINGER      FAIR      37  32  82 CALM      29.91S
$$

 *****  OTHER AIRPORT OBSERVATIONS IN OUR AREA  *****

CITY           SKY/WX    TMP DP  RH WIND       PRES   REMARKS
WALHALLA       NOT AVBL
GRAFTON AIRPOR FOG       34  34 100 CALM      29.99R VSB<1/4
VALLEY CITY AR PTSUNNY   34  34 100 CALM      29.96S FOG
CANDO          NOT AVBL
CAVALIER APRT  FOG       30  30 100 CALM      29.96F VSB<1/4
GWINNER        PTSUNNY   36  34  93 MISG      29.95F
SHEYENNE NWR     N/A     35  35 100 SW2       29.95S
ROLLA          CLOUDY    34  34 100 S6        29.92F
 ***** THE ABOVE OBSERVATIONS ARE NON NWS ARE NOT QUALITY
       CONTROLLED AND MAY MIS-REPORT RAIN FOR SNOW...
$$

  *****  WEATHER ACROSS NORTHERN MINNESOTA  *****

CITY           SKY/WX    TMP DP  RH WIND       PRES   REMARKS
FLAG ISLAND    FAIR      28  28 100 CALM      29.95R
WARROAD        FOG       28  25  86 CALM      29.95F VSB 1/2
ROSEAU         HAZE      30  25  80 CALM      29.95S VSB 1/2
HALLOCK        FOG       30  28  93 W3        29.97R VSB 1/2
THF RVR FALLS  FOG       30  29  96 NE3       29.97R VSB 1/2
BAUDETTE       FAIR      29  27  92 CALM      29.94R FOG
WASKISH        FAIR      28  28 100 CALM      29.95S
CROOKSTON      FOG       30  30 100 CALM      29.97S VSB<1/4
STEPHEN NDAWN    N/A     30  28  93 E1          N/A
GREENBUSH NDAW   N/A     28  28 100 SE2         N/A
$$
  *****  WEATHER ACROSS CENTRAL AND WEST MINNESOTA  *****

CITY           SKY/WX    TMP DP  RH WIND       PRES   REMARKS
FOSSTON        FAIR      32  30  93 CALM      29.96R FOG
BEMIDJI        FAIR      32  31  95 CALM      29.94S
PARK RAPIDS    CLOUDY    36  30  79 NW3       29.93R
ELBOW LAKE     FAIR      34  34 100 CALM      29.96S
WADENA         MOCLDY    34  30  86 CALM      29.94R
DETROIT LAKES  FAIR      36  36 100 CALM      29.95F FOG
MOORHEAD       MOCLDY    36  34  93 CALM      29.97S FOG
FERGUS FALLS   CLOUDY    37  36  93 NE3       29.99S
MORRIS MN      FAIR      34  32  93 NW5       29.94F FOG
STAPLES        MOCLDY    34  30  86 CALM      29.94S
$$
  *****  WEATHER ELSEWHERE ACROSS MINNESOTA  *****

CITY           SKY/WX    TMP DP  RH WIND       PRES   REMARKS
DULUTH         FOG       31  30  96 W3        29.92S VSB 1/2
INTRNTL FALLS  FAIR      28  25  88 CALM      29.93R
ELY            FAIR      28  28 100 CALM      29.91S
CLOQUET        FAIR      30  28  93 CALM      29.92F FOG
WHEATON        MOCLDY    36  34  93 CALM      29.98S
BRAINERD       CLOUDY    34  32  92 S3        29.94S
HIBBING        FAIR      29  29 100 CALM      29.92S
ALEXANDRIA     CLOUDY    37  33  85 NW5       29.94S
SAINT CLOUD    MOCLDY    34  34 100 CALM      29.93S
MINNEAPOLIS    CLOUDY    39  34  82 CALM      29.93S
$$

  *****  WEATHER ACROSS SOUTH DAKOTA  *****

CITY           SKY/WX    TMP DP  RH WIND       PRES   REMARKS
SIOUX FALLS    CLOUDY    43  39  86 NW3       29.96R
BROOKINGS      CLOUDY    35  34  96 CALM      29.94F FOG
WATERTOWN      CLOUDY    34  34 100 CALM      29.93F FOG
HURON          CLOUDY    38  37  97 CALM      29.95S
SISSETON         N/A     38  36  92 W5        29.94F
ABERDEEN       CLOUDY    38  34  85 SW3       29.96F
MITCHELL       MOCLDY    37  36  96 S5        29.96F
PIERRE         CLOUDY    40  37  89 S3        29.93F
MOBRIDGE       FAIR      43  36  76 SE7       29.90F
RAPID CITY     FOG       34  34 100 CALM      29.92F VSB 1/4
$$

  *****  SOME WEATHER IN NEARBY STATES *****

CITY           SKY/WX    TMP DP  RH WIND       PRES   REMARKS
GLASGOW MT     FAIR      36  24  62 SE3       29.86S
GREAT FALLS MT CLOUDY    41  18  39 E7        29.78F
CHEYENNE WY    FAIR      34  31  88 SW6       29.96F
SCOTTSBLUFF NE FAIR      30  26  85 N6        29.95F WCI  24
OMAHA NE       CLOUDY    46  41  82 N6        29.91F
DES MOINES IA  CLOUDY    45  44  97 N3        29.93R FOG
DAVENPORT IA   CLOUDY    46  46 100 W6        29.92S FOG
CHICAGO IL     CLOUDY    52  50  93 W13       29.89R FOG
EAU CLAIRE WI  CLOUDY    39  38  96 N3        29.90S
LA CROSSE WI   CLOUDY    42  40  92 E3        29.91S
$$

  *****  SOME NATIONAL WEATHER *****

CITY           SKY/WX    TMP DP  RH WIND       PRES   REMARKS
LA GUARDIA NY  DRIZZLE   39  37  92 NE10      30.24F FOG
RALEIGH NC     FAIR      63  54  72 S8        30.13S
ATLANTA GA     FAIR      63  55  75 S3        30.05F
NEW ORLEANS LA MOCLDY    72  69  90 SE12      29.97S
OKLAHOMA CITY  CLOUDY    54  50  86 NW22      29.78R
ALBUQUERQUE NM MOCLDY    47  23  38 E5        30.02S
SALT LAKE CITY MOCLDY    49  34  56 SE7       29.91F
LOS ANGELES CA FAIR      57  53  86 W10       30.03F
BOISE ID       LGT RAIN  45  39  79 SW10      29.89R
SEATTLE WA     CLOUDY    45  43  93 S14       29.84R
$$

*** WEATHER ACROSS MANITOBA...SASKATCHEWAN AND ONTARIO ***
                ***ONTARIO***

CITY           SKY/WX    TMP DP  RH WIND       PRES   REMARKS
GERALDTON      PTCLDY    23  23 100 CALM      29.87S
THUNDER BAY    CLOUDY    32  32 100 W6        29.92S FOG
SIOUX LOOKOUT  CLEAR     23  21  93 CALM      29.91R
TORONTO        CLOUDY    43  43 100 E2        29.89F FOG
BIG TROUT LK   CLOUDY    30  25  80 NW7       29.91R WCI  23
PICKLE LAKE    NOT AVBL
DRYDEN         CLEAR     30  30 100 NW2       29.92R
KENORA         CLEAR     36  32  87 N5        29.94R
$$
                *** MANITOBA***

CITY           SKY/WX    TMP DP  RH WIND       PRES   REMARKS
BRANDON        MOCLDY    34  32  93 E6        29.92S
DAUPHIN        LGT RAIN  32  32 100 VRB5      29.97S
ISLAND LAKE    FLURRIES  23  19  86 NW5       30.00R WCI  17
PILOT MOUND      N/A     32  32 100 E8          N/A  WCI  25
THE PAS        CLEAR     18  14  86 N2        30.03S
THOMPSON       FLURRIES  21  16  79 N7        30.07S WCI  13
WINNIPEG       PTCLDY    32  30  93 E3        29.98R
LYNN LAKE      CLEAR     10  10 100 NE5       30.07S WCI   2
CHURCHILL      FLURRIES   9   7  92 N14       30.09R WCI  -8
GILLAM         FLURRIES  14   9  79 N12       30.05R WCI   0
$$
                ***SASKATCHEWAN***

CITY           SKY/WX    TMP DP  RH WIND       PRES   REMARKS
ESTEVAN        CLEAR     28  28 100 E6        29.87F WCI  22
KINDERSLEY     FOG       30  28  93 E15       29.87S VSB 1/4 WCI  19
LLOYDMINSTER   CLEAR     28  28 100 E7        29.86F WCI  21
PRINCE ALBERT  MOCLDY    21  19  93 E3        29.98S
REGINA         FOG       30  30 100 N8        29.88S VSB 1/2 WCI  23
YORKTON        CLOUDY    30  28  93 NE5       29.90F
N. BATTLEFORD  CLEAR     27 N/A N/A SE10      29.93F WCI  17
LA RONGE       PTCLDY    14  10  85 NE7       30.01R WCI   4
SASKATOON      CLOUDY    28  27  93 E8        29.96S WCI  20
SWIFT CURRENT  CLEAR     30  27  86 E9        29.84F WCI  22
$$
NOTE: THESE ARE AUTOMATED STATIONS WITH LIMITED QUALITY CONTROL
      "FAIR" INDICATES FEW OR NO CLOUDS BELOW 12,000 FEET WITH NO
      SIGNIFICANT WEATHER AND/OR OBSTRUCTIONS TO VISIBILITY.
      SKY/WX - SKY CONDITION AND SIGNIFICANT WEATHER.
      TMP - AIR TEMPERATURE.    DP   - DEWPOINT TEMPERATURE.
      RH  - RELATIVE HUMIDITY.  PRES - PRESSURE.
      HX  - HEAT INDEX.         WCI  - WIND CHILL INDEX.
$




USA.gov is the U.S. government's official web portal to all federal, state and local government web resources and services.